Location: Middelsbur
(53.6609°N, 7.5020°E)
Time: 00:14:53
(UTC+00:00)

Terra - Pass Details

Date: 06 July 2020
Orbit: 701 x 703 km, 98.2° (Epoch: 03 August)

Event Time Altitude Azimuth Distance (km) Brightness Sun altitude
Exits shadow 22:53:51 - 224° (SW) 2,728 4.5 -13.3°
Reaches altitude 10° 22:56:03 10° 243° (WSW) 2,173 4.2 -13.3°
Maximum altitude 22:58:31 14° 275° (W) 1,917 4.2 -13.4°
Drops below altitude 10° 23:01:00 10° 306° (NW) 2,182 5.0 -13.4°
Sets 23:04:24 0° 332° (NNW) 3,107 6.6 -13.5°
